ProjectID,Date,Electric Generation,Electric Utility Import,Facility Electric Load
,YYYY-MM-DD,kW,kW,kW
356,2016-04-01,24.834999999999997,,24.834999999999997
356,2016-04-02,38.294999999999995,,38.294999999999995
356,2016-04-03,45.665,,45.665
356,2016-04-04,0.0,,0.0
356,2016-04-05,0.0,,0.0
356,2016-04-06,0.0,,0.0
356,2016-04-07,0.0,,0.0
356,2016-04-08,0.0,,0.0
356,2016-04-09,0.0,,0.0
356,2016-04-10,0.0,,0.0
356,2016-04-11,0.0,,0.0
356,2016-04-12,0.0,,0.0
356,2016-04-13,0.0,,0.0
356,2016-04-14,0.0,,0.0
356,2016-04-15,0.0,,0.0
356,2016-04-16,0.0,,0.0
356,2016-04-17,0.0,,0.0
356,2016-04-18,0.0,,0.0
356,2016-04-19,0.0,,0.0
356,2016-04-20,0.0,,0.0
356,2016-04-21,84.82499999999999,,84.82499999999999
356,2016-04-22,21.904999999999998,,21.904999999999998
356,2016-04-23,47.51,,47.51
356,2016-04-24,92.08499999999998,,92.08499999999998
356,2016-04-25,39.269999999999996,,39.269999999999996
356,2016-04-26,14.990000000000002,,14.990000000000002
356,2016-04-27,87.33,,87.33
356,2016-04-28,83.62,,83.62
356,2016-04-29,83.685,,83.685
356,2016-04-30,91.46000000000002,,91.46000000000002
356,2016-05-01,13.674999999999999,,13.674999999999999
356,2016-05-02,18.24,,18.24
356,2016-05-03,49.18999999999999,,49.18999999999999
356,2016-05-04,17.765000000000004,,17.765000000000004
356,2016-05-05,37.04,,37.04
356,2016-05-06,49.27000000000001,,49.27000000000001
356,2016-05-07,69.83999999999999,,69.83999999999999
356,2016-05-08,59.279999999999994,,59.279999999999994
356,2016-05-09,87.14499999999998,,87.14499999999998
356,2016-05-10,93.12,,93.12
356,2016-05-11,95.34999999999997,,95.34999999999997
356,2016-05-12,89.33,,89.33
356,2016-05-13,22.064999999999998,,22.064999999999998
356,2016-05-14,67.985,,67.985
356,2016-05-15,33.830000000000005,,33.830000000000005
356,2016-05-16,63.71499999999998,,63.71499999999998
356,2016-05-17,70.65500000000002,,70.65500000000002
356,2016-05-18,90.62499999999999,,90.62499999999999
356,2016-05-19,60.75,,60.75
356,2016-05-20,89.63000000000001,,89.63000000000001
356,2016-05-21,51.555,,51.555
356,2016-05-22,50.38999999999999,,50.38999999999999
356,2016-05-23,92.145,,92.145
356,2016-05-24,47.50999999999999,,47.50999999999999
356,2016-05-25,78.81500000000001,,78.81500000000001
356,2016-05-26,80.89999999999999,,80.89999999999999
356,2016-05-27,84.805,,84.805
356,2016-05-28,70.38000000000001,,70.38000000000001
356,2016-05-29,56.79500000000001,,56.79500000000001
356,2016-05-30,81.78000000000002,,81.78000000000002
356,2016-05-31,98.01499999999999,,98.01499999999999
356,2016-06-01,88.18,,88.18
356,2016-06-02,76.36,,76.36
356,2016-06-03,78.75999999999999,,78.75999999999999
356,2016-06-04,83.49999999999999,,83.49999999999999
356,2016-06-05,12.560000000000004,,12.560000000000004
356,2016-06-06,76.065,,76.065
356,2016-06-07,41.904999999999994,,41.904999999999994
356,2016-06-08,0.0,,0.0
356,2016-06-09,88.39999999999999,,88.39999999999999
356,2016-06-10,97.58000000000003,,97.58000000000003
356,2016-06-11,0.0,,0.0
356,2016-06-12,38.055,,38.055
356,2016-06-13,69.205,,69.205
356,2016-06-14,0.0,,0.0
356,2016-06-15,93.86000000000001,,93.86000000000001
356,2016-06-16,91.41000000000001,,91.41000000000001
356,2016-06-17,0.0,,0.0
356,2016-06-18,60.21,,60.21
356,2016-06-19,93.09499999999998,,93.09499999999998
356,2016-06-20,87.735,,87.735
356,2016-06-21,91.78999999999998,,91.78999999999998
356,2016-06-22,71.56499999999998,,71.56499999999998
356,2016-06-23,73.44999999999999,,73.44999999999999
356,2016-06-24,96.61,,96.61
356,2016-06-25,95.85499999999998,,95.85499999999998
356,2016-06-26,92.11999999999999,,92.11999999999999
356,2016-06-27,41.245,,41.245
356,2016-06-28,45.830000000000005,,45.830000000000005
356,2016-06-29,85.68499999999999,,85.68499999999999
356,2016-06-30,92.67,,92.67
356,2016-07-01,62.03000000000001,,62.03000000000001
356,2016-07-02,86.18499999999999,,86.18499999999999
356,2016-07-03,87.54500000000002,,87.54500000000002
356,2016-07-04,97.11,,97.11
356,2016-07-05,79.17,,79.17
356,2016-07-06,91.71500000000002,,91.71500000000002
356,2016-07-07,72.28999999999999,,72.28999999999999
356,2016-07-08,58.37,,58.37
356,2016-07-09,11.57,,11.57
356,2016-07-10,46.90999999999999,,46.90999999999999
356,2016-07-11,90.36500000000001,,90.36500000000001
356,2016-07-12,89.865,,89.865
356,2016-07-13,86.915,,86.915
356,2016-07-14,47.629999999999995,,47.629999999999995
356,2016-07-15,84.31499999999998,,84.31499999999998
356,2016-07-16,81.11,,81.11
356,2016-07-17,81.595,,81.595
356,2016-07-18,56.11499999999999,,56.11499999999999
356,2016-07-19,79.85000000000001,,79.85000000000001
356,2016-07-20,88.79499999999997,,88.79499999999997
356,2016-07-21,89.83999999999999,,89.83999999999999
356,2016-07-22,87.23499999999997,,87.23499999999997
356,2016-07-23,67.63,,67.63
356,2016-07-24,83.08,,83.08
356,2016-07-25,57.224999999999994,,57.224999999999994
356,2016-07-26,65.715,,65.715
356,2016-07-27,86.60499999999998,,86.60499999999998
356,2016-07-28,59.014999999999986,,59.014999999999986
356,2016-07-29,84.54,,84.54
356,2016-07-30,73.005,,73.005
356,2016-07-31,22.875000000000004,,22.875000000000004
356,2016-08-01,52.725,,52.725
356,2016-08-02,46.16499999999999,,46.16499999999999
356,2016-08-03,87.90999999999998,,87.90999999999998
356,2016-08-04,85.59499999999998,,85.59499999999998
356,2016-08-05,85.78499999999998,,85.78499999999998
356,2016-08-06,78.25499999999998,,78.25499999999998
356,2016-08-07,75.18499999999999,,75.18499999999999
356,2016-08-08,84.97499999999998,,84.97499999999998
356,2016-08-09,84.76499999999999,,84.76499999999999
356,2016-08-10,27.914999999999996,,27.914999999999996
356,2016-08-11,70.60000000000001,,70.60000000000001
356,2016-08-12,50.5,,50.5
356,2016-08-13,46.139999999999986,,46.139999999999986
356,2016-08-14,51.10999999999999,,51.10999999999999
356,2016-08-15,54.09499999999998,,54.09499999999998
356,2016-08-16,27.115000000000006,,27.115000000000006
356,2016-08-17,63.01500000000001,,63.01500000000001
356,2016-08-18,57.175000000000004,,57.175000000000004
356,2016-08-19,72.71,,72.71
356,2016-08-20,79.22,,79.22
356,2016-08-21,39.654999999999994,,39.654999999999994
356,2016-08-22,79.245,,79.245
356,2016-08-23,79.335,,79.335
356,2016-08-24,76.22000000000001,,76.22000000000001
356,2016-08-25,31.664999999999996,,31.664999999999996
356,2016-08-26,60.27,,60.27
356,2016-08-27,68.15499999999999,,68.15499999999999
356,2016-08-28,68.77000000000001,,68.77000000000001
356,2016-08-29,77.05999999999997,,77.05999999999997
356,2016-08-30,73.66499999999999,,73.66499999999999
356,2016-08-31,33.080000000000005,,33.080000000000005
356,2016-09-01,59.715,,59.715
356,2016-09-02,70.465,,70.465
356,2016-09-03,71.46499999999999,,71.46499999999999
356,2016-09-04,69.11,,69.11
356,2016-09-05,69.67,,69.67
356,2016-09-06,57.509999999999984,,57.509999999999984
356,2016-09-07,65.605,,65.605
356,2016-09-08,45.815,,45.815
356,2016-09-09,56.73999999999999,,56.73999999999999
356,2016-09-10,38.005,,38.005
356,2016-09-11,56.359999999999985,,56.359999999999985
356,2016-09-12,69.99,,69.99
356,2016-09-13,67.845,,67.845
356,2016-09-14,29.145,,29.145
356,2016-09-15,63.70999999999999,,63.70999999999999
356,2016-09-16,68.185,,68.185
356,2016-09-17,56.68,,56.68
356,2016-09-18,26.025000000000002,,26.025000000000002
356,2016-09-19,30.685000000000002,,30.685000000000002
356,2016-09-20,54.99999999999999,,54.99999999999999
356,2016-09-21,62.599999999999994,,62.599999999999994
356,2016-09-22,60.44999999999998,,60.44999999999998
356,2016-09-23,18.44,,18.44
356,2016-09-24,61.804999999999986,,61.804999999999986
356,2016-09-25,63.125,,63.125
356,2016-09-26,53.599999999999994,,53.599999999999994
356,2016-09-27,44.779999999999994,,44.779999999999994
356,2016-09-28,46.46999999999999,,46.46999999999999
356,2016-09-29,50.05999999999998,,50.05999999999998
356,2016-09-30,32.955000000000005,,32.955000000000005
356,2016-10-01,23.135,,23.135
356,2016-10-02,13.83,,13.83
356,2016-10-03,29.825000000000006,,29.825000000000006
356,2016-10-04,24.455000000000002,,24.455000000000002
356,2016-10-05,50.82499999999999,,50.82499999999999
356,2016-10-06,54.08499999999999,,54.08499999999999
356,2016-10-07,52.974999999999994,,52.974999999999994
356,2016-10-08,16.389999999999997,,16.389999999999997
356,2016-10-09,14.865,,14.865
356,2016-10-10,54.21999999999999,,54.21999999999999
356,2016-10-11,49.915,,49.915
356,2016-10-12,48.36499999999999,,48.36499999999999
356,2016-10-13,17.445000000000004,,17.445000000000004
356,2016-10-14,51.17499999999999,,51.17499999999999
356,2016-10-15,47.38499999999999,,47.38499999999999
356,2016-10-16,25.685000000000002,,25.685000000000002
356,2016-10-17,15.835000000000003,,15.835000000000003
356,2016-10-18,41.49999999999999,,41.49999999999999
356,2016-10-19,43.154999999999994,,43.154999999999994
356,2016-10-20,8.15,,8.15
356,2016-10-21,21.035,,21.035
356,2016-10-22,5.795000000000001,,5.795000000000001
356,2016-10-23,46.26499999999999,,46.26499999999999
356,2016-10-24,45.779999999999994,,45.779999999999994
356,2016-10-25,28.94,,28.94
356,2016-10-26,29.539999999999996,,29.539999999999996
356,2016-10-27,4.38,,4.38
356,2016-10-28,4.62,,4.62
356,2016-10-29,5.815,,5.815
356,2016-10-30,17.895,,17.895
356,2016-10-31,30.674999999999997,,30.674999999999997
356,2016-11-01,38.839999999999996,,38.839999999999996
356,2016-11-02,18.365,,18.365
356,2016-11-03,4.755,,4.755
356,2016-11-04,37.17,,37.17
356,2016-11-05,23.385,,23.385
356,2016-11-06,23.83,,23.83
356,2016-11-07,35.62,,35.62
356,2016-11-08,35.115,,35.115
356,2016-11-09,3.7049999999999996,,3.7049999999999996
356,2016-11-10,28.189999999999998,,28.189999999999998
356,2016-11-11,23.965,,23.965
356,2016-11-12,32.65,,32.65
356,2016-11-13,32.12500000000001,,32.12500000000001
356,2016-11-14,30.910000000000007,,30.910000000000007
356,2016-11-15,11.815,,11.815
356,2016-11-16,6.665,,6.665
356,2016-11-17,25.030000000000005,,25.030000000000005
356,2016-11-18,29.330000000000002,,29.330000000000002
356,2016-11-19,27.250000000000004,,27.250000000000004
356,2016-11-20,7.300000000000001,,7.300000000000001
356,2016-11-21,1.9299999999999997,,1.9299999999999997
356,2016-11-22,20.865,,20.865
356,2016-11-23,27.300000000000008,,27.300000000000008
356,2016-11-24,9.364999999999998,,9.364999999999998
356,2016-11-25,7.739999999999999,,7.739999999999999
356,2016-11-26,8.705,,8.705
356,2016-11-27,12.145000000000001,,12.145000000000001
356,2016-11-28,27.060000000000002,,27.060000000000002
356,2016-11-29,1.5749999999999995,,1.5749999999999995
356,2016-11-30,4.490000000000001,,4.490000000000001
356,2016-12-01,9.355000000000002,,9.355000000000002
356,2016-12-02,17.025000000000002,,17.025000000000002
356,2016-12-03,16.185000000000002,,16.185000000000002
356,2016-12-04,11.46,,11.46
356,2016-12-05,0.17500000000000002,,0.17500000000000002
356,2016-12-06,2.0499999999999994,,2.0499999999999994
356,2016-12-07,1.6500000000000001,,1.6500000000000001
356,2016-12-08,11.775000000000004,,11.775000000000004
356,2016-12-09,21.0,,21.0
356,2016-12-10,24.264999999999997,,24.264999999999997
356,2016-12-11,19.23,,19.23
356,2016-12-12,0.015,,0.015
356,2016-12-13,0.14,,0.14
356,2016-12-14,0.24,,0.24
356,2016-12-15,0.315,,0.315
356,2016-12-16,0.3899999999999999,,0.3899999999999999
356,2016-12-17,0.01,,0.01
356,2016-12-18,0.024999999999999998,,0.024999999999999998
356,2016-12-19,0.6750000000000002,,0.6750000000000002
356,2016-12-20,0.455,,0.455
356,2016-12-21,0.595,,0.595
356,2016-12-22,0.06000000000000002,,0.06000000000000002
356,2016-12-23,0.5449999999999998,,0.5449999999999998
356,2016-12-24,0.415,,0.415
356,2016-12-25,6.839999999999999,,6.839999999999999
356,2016-12-26,4.25,,4.25
356,2016-12-27,6.314999999999999,,6.314999999999999
356,2016-12-28,12.950000000000003,,12.950000000000003
356,2016-12-29,0.4249999999999999,,0.4249999999999999
356,2016-12-30,0.10500000000000002,,0.10500000000000002
356,2016-12-31,0.10500000000000002,,0.10500000000000002
356,2017-01-01,0.15000000000000002,,0.15000000000000002
356,2017-01-02,0.16,,0.16
356,2017-01-03,0.12999999999999998,,0.12999999999999998
356,2017-01-04,10.935,,10.935
356,2017-01-05,22.209999999999997,,22.209999999999997
356,2017-01-06,9.08,,9.08
356,2017-01-07,12.575000000000001,,12.575000000000001
356,2017-01-08,17.15,,17.15
356,2017-01-09,7.565,,7.565
356,2017-01-10,8.265,,8.265
356,2017-01-11,25.534999999999997,,25.534999999999997
356,2017-01-12,3.725,,3.725
356,2017-01-13,27.975000000000005,,27.975000000000005
356,2017-01-14,18.360000000000003,,18.360000000000003
356,2017-01-15,29.414999999999996,,29.414999999999996
356,2017-01-16,26.689999999999998,,26.689999999999998
356,2017-01-17,13.850000000000001,,13.850000000000001
356,2017-01-18,3.15,,3.15
356,2017-01-19,13.925000000000002,,13.925000000000002
356,2017-01-20,5.015,,5.015
356,2017-01-21,12.295,,12.295
356,2017-01-22,3.485,,3.485
356,2017-01-23,12.350000000000003,,12.350000000000003
356,2017-01-24,0.8099999999999999,,0.8099999999999999
356,2017-01-25,0.26,,0.26
356,2017-01-26,2.7950000000000004,,2.7950000000000004
356,2017-01-27,15.120000000000003,,15.120000000000003
356,2017-01-28,20.015,,20.015
356,2017-01-29,26.314999999999998,,26.314999999999998
356,2017-01-30,39.339999999999996,,39.339999999999996
356,2017-01-31,27.78,,27.78
356,2017-02-01,16.34,,16.34
356,2017-02-02,21.270000000000003,,21.270000000000003
356,2017-02-03,24.155,,24.155
356,2017-02-04,26.755000000000006,,26.755000000000006
356,2017-02-05,20.465,,20.465
356,2017-02-06,29.51,,29.51
356,2017-02-07,5.705000000000002,,5.705000000000002
356,2017-02-08,21.61,,21.61
356,2017-02-09,0.08,,0.08
356,2017-02-10,0.44999999999999996,,0.44999999999999996
356,2017-02-11,0.065,,0.065
356,2017-02-12,0.02,,0.02
356,2017-02-13,0.07,,0.07
356,2017-02-14,0.13999999999999999,,0.13999999999999999
356,2017-02-15,0.17500000000000002,,0.17500000000000002
356,2017-02-16,0.92,,0.92
356,2017-02-17,2.735,,2.735
356,2017-02-18,7.080000000000001,,7.080000000000001
356,2017-02-19,25.980000000000004,,25.980000000000004
356,2017-02-20,51.224999999999994,,51.224999999999994
356,2017-02-21,38.855,,38.855
356,2017-02-22,43.695,,43.695
356,2017-02-23,41.62499999999999,,41.62499999999999
356,2017-02-24,26.925,,26.925
356,2017-02-25,28.11,,28.11
356,2017-02-26,33.45,,33.45
356,2017-02-27,50.92999999999998,,50.92999999999998
356,2017-02-28,39.255,,39.255
356,2017-03-01,17.154999999999998,,17.154999999999998
356,2017-03-02,56.919999999999995,,56.919999999999995
356,2017-03-03,54.92499999999999,,54.92499999999999
356,2017-03-04,16.935,,16.935
356,2017-03-05,58.78499999999999,,58.78499999999999
356,2017-03-06,49.24,,49.24
356,2017-03-07,4.0649999999999995,,4.0649999999999995
356,2017-03-08,51.839999999999996,,51.839999999999996
356,2017-03-09,53.419999999999995,,53.419999999999995
356,2017-03-10,32.185,,32.185
356,2017-03-11,57.419999999999995,,57.419999999999995
356,2017-03-12,67.82999999999998,,67.82999999999998
356,2017-03-13,51.25499999999999,,51.25499999999999
356,2017-03-14,0.01,,0.01
356,2017-03-15,0.01,,0.01
356,2017-03-16,0.01,,0.01
356,2017-03-17,0.05000000000000001,,0.05000000000000001
356,2017-03-18,0.165,,0.165
356,2017-03-19,1.6850000000000003,,1.6850000000000003
356,2017-03-20,11.965000000000002,,11.965000000000002
356,2017-03-21,16.130000000000003,,16.130000000000003
356,2017-03-22,47.93999999999999,,47.93999999999999
356,2017-03-23,54.87,,54.87
356,2017-03-24,5.630000000000002,,5.630000000000002
356,2017-03-25,16.419999999999998,,16.419999999999998
356,2017-03-26,21.800000000000008,,21.800000000000008
356,2017-03-27,10.395000000000003,,10.395000000000003
356,2017-03-28,25.8,,25.8
356,2017-03-29,38.945,,38.945
356,2017-03-30,66.01,,66.01
356,2017-03-31,2.4549999999999996,,2.4549999999999996
356,2017-04-01,19.195000000000004,,19.195000000000004
356,2017-04-02,62.20999999999998,,62.20999999999998
356,2017-04-03,60.68499999999998,,60.68499999999998
356,2017-04-04,8.035,,8.035
356,2017-04-05,31.265,,31.265
356,2017-04-06,7.255000000000002,,7.255000000000002
356,2017-04-07,26.944999999999997,,26.944999999999997
356,2017-04-08,56.879999999999995,,56.879999999999995
356,2017-04-09,81.80499999999999,,81.80499999999999
356,2017-04-10,68.91499999999999,,68.91499999999999
356,2017-04-11,62.714999999999996,,62.714999999999996
356,2017-04-12,44.849999999999994,,44.849999999999994
356,2017-04-13,68.81499999999998,,68.81499999999998
356,2017-04-14,84.735,,84.735
356,2017-04-15,63.129999999999995,,63.129999999999995
356,2017-04-16,62.559999999999974,,62.559999999999974
356,2017-04-17,77.99999999999999,,77.99999999999999
356,2017-04-18,88.365,,88.365
356,2017-04-19,28.63,,28.63
356,2017-04-20,39.275,,39.275
356,2017-04-21,11.325000000000003,,11.325000000000003
356,2017-04-22,33.934999999999995,,33.934999999999995
356,2017-04-23,89.22500000000001,,89.22500000000001
356,2017-04-24,86.29,,86.29
356,2017-04-25,27.825,,27.825
356,2017-04-26,64.34500000000001,,64.34500000000001
356,2017-04-27,61.535,,61.535
356,2017-04-28,73.75999999999999,,73.75999999999999
356,2017-04-29,32.695,,32.695
356,2017-04-30,33.185,,33.185
356,2017-05-01,58.115,,58.115
356,2017-05-02,30.255000000000006,,30.255000000000006
356,2017-05-03,60.804999999999986,,60.804999999999986
356,2017-05-04,72.72500000000001,,72.72500000000001
356,2017-05-05,13.180000000000001,,13.180000000000001
356,2017-05-06,44.554999999999986,,44.554999999999986
356,2017-05-07,47.654999999999994,,47.654999999999994
356,2017-05-08,48.59499999999999,,48.59499999999999
356,2017-05-09,40.12499999999999,,40.12499999999999
356,2017-05-10,54.36499999999999,,54.36499999999999
356,2017-05-11,95.53499999999998,,95.53499999999998
356,2017-05-12,91.69500000000001,,91.69500000000001
356,2017-05-13,27.445000000000004,,27.445000000000004
356,2017-05-14,58.47,,58.47
356,2017-05-15,72.31500000000001,,72.31500000000001
356,2017-05-16,90.80999999999999,,90.80999999999999
356,2017-05-17,89.07,,89.07
356,2017-05-18,85.05999999999999,,85.05999999999999
356,2017-05-19,63.474999999999994,,63.474999999999994
356,2017-05-20,100.56,,100.56
356,2017-05-21,55.26999999999998,,55.26999999999998
356,2017-05-22,18.345000000000002,,18.345000000000002
356,2017-05-23,82.83999999999999,,82.83999999999999
356,2017-05-24,76.49999999999999,,76.49999999999999
356,2017-05-25,23.49,,23.49
356,2017-05-26,22.554999999999993,,22.554999999999993
356,2017-05-27,71.18499999999999,,71.18499999999999
356,2017-05-28,73.68499999999999,,73.68499999999999
356,2017-05-29,22.415000000000003,,22.415000000000003
356,2017-05-30,17.715,,17.715
356,2017-05-31,67.42,,67.42
356,2017-06-01,73.96499999999999,,73.96499999999999
356,2017-06-02,62.88999999999999,,62.88999999999999
356,2017-06-03,63.724999999999994,,63.724999999999994
356,2017-06-04,38.395,,38.395
356,2017-06-05,21.84,,21.84
356,2017-06-06,19.57,,19.57
356,2017-06-07,97.42999999999999,,97.42999999999999
356,2017-06-08,82.53500000000001,,82.53500000000001
356,2017-06-09,70.86,,70.86
356,2017-06-10,77.33,,77.33
356,2017-06-11,90.54499999999997,,90.54499999999997
356,2017-06-12,88.21500000000002,,88.21500000000002
356,2017-06-13,74.67,,74.67
356,2017-06-14,98.425,,98.425
356,2017-06-15,84.15,,84.15
356,2017-06-16,0.0,,0.0
356,2017-06-17,0.0,,0.0
356,2017-06-18,0.0,,0.0
356,2017-06-19,0.0,,0.0
356,2017-06-20,0.0,,0.0
356,2017-06-21,0.0,,0.0
356,2017-06-22,0.0,,0.0
356,2017-06-23,0.0,,0.0
356,2017-06-24,0.0,,0.0
356,2017-06-25,0.0,,0.0
356,2017-06-26,0.0,,0.0
356,2017-06-27,0.0,,0.0
356,2017-06-28,0.0,,0.0
356,2017-06-29,0.0,,0.0
356,2017-06-30,0.0,,0.0
356,2017-07-01,0.0,,0.0
356,2017-07-02,0.0,,0.0
356,2017-07-03,0.0,,0.0
356,2017-07-04,0.0,,0.0
356,2017-07-05,0.0,,0.0
356,2017-07-06,0.0,,0.0
356,2017-07-07,0.0,,0.0
356,2017-07-08,0.0,,0.0
356,2017-07-09,0.0,,0.0
356,2017-07-10,0.0,,0.0
356,2017-07-11,34.215,,34.215
356,2017-07-12,66.72999999999999,,66.72999999999999
356,2017-07-13,23.535,,23.535
356,2017-07-14,18.36,,18.36
356,2017-07-15,58.684999999999995,,58.684999999999995
356,2017-07-16,85.13000000000001,,85.13000000000001
356,2017-07-17,62.339999999999996,,62.339999999999996
356,2017-07-18,74.88499999999998,,74.88499999999998
356,2017-07-19,71.145,,71.145
356,2017-07-20,58.42000000000001,,58.42000000000001
356,2017-07-21,83.41999999999999,,83.41999999999999
356,2017-07-22,53.11000000000001,,53.11000000000001
356,2017-07-23,68.38,,68.38
356,2017-07-24,17.37,,17.37
356,2017-07-25,34.945,,34.945
356,2017-07-26,72.8,,72.8
356,2017-07-27,30.530000000000005,,30.530000000000005
356,2017-07-28,78.49,,78.49
356,2017-07-29,77.64,,77.64
356,2017-07-30,88.21,,88.21
356,2017-07-31,83.66,,83.66
356,2017-08-01,83.09,,83.09
356,2017-08-02,59.43999999999999,,59.43999999999999
356,2017-08-03,77.34,,77.34
356,2017-08-04,54.655,,54.655
356,2017-08-05,48.665,,48.665
356,2017-08-06,70.975,,70.975
356,2017-08-07,78.465,,78.465
356,2017-08-08,69.64999999999998,,69.64999999999998
356,2017-08-09,69.73999999999998,,69.73999999999998
356,2017-08-10,76.83999999999999,,76.83999999999999
356,2017-08-11,38.32,,38.32
356,2017-08-12,48.155,,48.155
356,2017-08-13,77.56999999999998,,77.56999999999998
356,2017-08-14,70.02999999999999,,70.02999999999999
356,2017-08-15,49.035000000000004,,49.035000000000004
356,2017-08-16,72.22,,72.22
356,2017-08-17,77.965,,77.965
356,2017-08-18,17.035,,17.035
356,2017-08-19,70.46,,70.46
356,2017-08-20,72.485,,72.485
356,2017-08-21,67.92,,67.92
356,2017-08-22,50.465,,50.465
356,2017-08-23,64.95499999999998,,64.95499999999998
356,2017-08-24,50.695,,50.695
356,2017-08-25,68.62,,68.62
356,2017-08-26,67.78,,67.78
356,2017-08-27,77.91000000000001,,77.91000000000001
356,2017-08-28,67.64000000000001,,67.64000000000001
356,2017-08-29,30.31,,30.31
356,2017-08-30,72.03500000000001,,72.03500000000001
356,2017-08-31,61.14499999999999,,61.14499999999999
356,2017-09-01,71.85,,71.85
356,2017-09-02,73.55,,73.55
356,2017-09-03,13.684999999999997,,13.684999999999997
356,2017-09-04,67.30999999999999,,67.30999999999999
356,2017-09-05,20.959999999999997,,20.959999999999997
356,2017-09-06,14.870000000000003,,14.870000000000003
356,2017-09-07,48.53,,48.53
356,2017-09-08,39.620000000000005,,39.620000000000005
356,2017-09-09,48.89499999999999,,48.89499999999999
356,2017-09-10,64.95,,64.95
356,2017-09-11,64.985,,64.985
356,2017-09-12,58.78499999999999,,58.78499999999999
356,2017-09-13,59.724999999999994,,59.724999999999994
356,2017-09-14,31.335000000000004,,31.335000000000004
356,2017-09-15,47.724999999999994,,47.724999999999994
356,2017-09-16,57.76,,57.76
356,2017-09-17,56.065,,56.065
356,2017-09-18,56.205000000000005,,56.205000000000005
356,2017-09-19,54.70499999999999,,54.70499999999999
356,2017-09-20,42.529999999999994,,42.529999999999994
356,2017-09-21,51.70999999999999,,51.70999999999999
356,2017-09-22,55.129999999999995,,55.129999999999995
356,2017-09-23,57.26499999999999,,57.26499999999999
356,2017-09-24,54.585,,54.585
356,2017-09-25,54.049999999999976,,54.049999999999976
356,2017-09-26,52.724999999999994,,52.724999999999994
356,2017-09-27,53.044999999999995,,53.044999999999995
356,2017-09-28,58.42499999999999,,58.42499999999999
356,2017-09-29,55.800000000000004,,55.800000000000004
356,2017-09-30,22.980000000000004,,22.980000000000004
356,2017-10-01,53.27,,53.27
356,2017-10-02,55.06,,55.06
356,2017-10-03,54.919999999999995,,54.919999999999995
356,2017-10-04,52.589999999999996,,52.589999999999996
356,2017-10-05,53.43999999999999,,53.43999999999999
356,2017-10-06,11.780000000000001,,11.780000000000001
356,2017-10-07,14.600000000000001,,14.600000000000001
356,2017-10-08,36.62,,36.62
356,2017-10-09,16.095000000000002,,16.095000000000002
356,2017-10-10,37.56,,37.56
356,2017-10-11,17.915000000000003,,17.915000000000003